Weather History for KFXY - October, 2011

Change the Weather History Date:

Wednesday, October 19, 2011

  Actual Average Record
Temperature  
Mean Temperature 38 °F -  
Max Temperature 44 °F 57 °F 68 °F (2014)
Min Temperature 33 °F 34 °F 28 °F (2013)
Degree Days  
Heating Degree Days 26    
Moisture  
Dew Point 31 °F    
Average Humidity 76    
Maximum Humidity 93    
Minimum Humidity 61    
Precipitation  
Precipitation 0.00 in - - ()
Sea Level Pressure  
Sea Level Pressure 30.02 in    
Wind  
Wind Speed 12 mph (North)    
Max Wind Speed 21 mph    
Max Gust Speed 23 mph    
Visibility 10 miles    
Events      
Averages and records for this station are not official NWS values.
T = Trace of Precipitation, MM = Missing Value Source: NWS Daily Summary

Daily Weather History Graph

Daily Weather History Graph

Search for Another Location

Airport or City:

Trip Planner

Search our weather history database for the weather conditions in past years. The results will help you decide how hot, cold, wet, or windy it might be!

Date:

Astronomy

Oct. 19, 2011 Rise Set
Actual Time 7:32 AM CDT 6:25 PM CDT
Civil Twilight 7:03 AM CDT 6:54 PM CDT
Nautical Twilight 6:30 AM CDT 7:27 PM CDT
Astronomical Twilight 5:57 AM CDT 8:00 PM CDT
Moon No Moon Rise 2:08 PM CDT (10/19)
Length of Visible Light 11h 50m
Length of Day
10h 52m
Waning Gibbous, 54% of the Moon is Illuminated
Oct 19
Waning Gibbous
Oct 19
Last Quarter
Oct 26
New
Nov 2
First Quarter
Nov 10
Full

Hourly Weather History & Observations

Time (CDT) Temp. Windchill Dew Point Humidity Pressure Visibility Wind Dir Wind Speed Gust Speed Precip Events Conditions
12:15 AM 35.6 °F 28.0 °F 30.2 °F 81% 30.01 in 10.0 mi North 10.4 mph - N/A   Overcast
12:35 AM 35.6 °F 28.6 °F 30.2 °F 81% 30.00 in 10.0 mi North 9.2 mph - N/A   Overcast
12:55 AM 35.6 °F 28.0 °F 30.2 °F 81% 30.01 in 10.0 mi NNW 10.4 mph - N/A   Overcast
1:15 AM 35.6 °F 28.0 °F 30.2 °F 81% 30.00 in 10.0 mi NNW 10.4 mph - N/A   Overcast
1:35 AM 33.8 °F 26.4 °F 30.2 °F 87% 30.00 in 10.0 mi NNW 9.2 mph - N/A   Mostly Cloudy
1:55 AM 33.8 °F 25.3 °F 30.2 °F 87% 30.00 in 10.0 mi NNW 11.5 mph - N/A   Overcast
2:15 AM 33.8 °F 26.4 °F 30.2 °F 87% 30.00 in 10.0 mi North 9.2 mph - N/A   Overcast
2:55 AM 33.8 °F 25.8 °F 30.2 °F 87% 30.00 in 10.0 mi North 10.4 mph - N/A   Overcast
3:15 AM 35.6 °F 27.5 °F 30.2 °F 81% 30.00 in 10.0 mi NNW 11.5 mph - N/A   Overcast
3:35 AM 35.6 °F 27.5 °F 30.2 °F 81% 29.99 in 10.0 mi NNW 11.5 mph - N/A   Overcast
3:55 AM 35.6 °F 28.0 °F 30.2 °F 81% 29.99 in 10.0 mi North 10.4 mph - N/A   Overcast
4:15 AM 35.6 °F 28.6 °F 30.2 °F 81% 29.99 in 10.0 mi NNW 9.2 mph - N/A   Overcast
4:55 AM 35.6 °F 28.0 °F 30.2 °F 81% 30.00 in 10.0 mi NNW 10.4 mph - N/A   Overcast
5:15 AM 33.8 °F 24.3 °F 32.0 °F 93% 30.01 in 7.0 mi NNW 13.8 mph - N/A   Drizzle
5:35 AM 33.8 °F 24.8 °F 32.0 °F 93% 30.01 in 10.0 mi NNW 12.7 mph 16.1 mph N/A   Overcast
5:55 AM 33.8 °F 25.8 °F 32.0 °F 93% 30.01 in 10.0 mi North 10.4 mph - N/A   Overcast
6:15 AM 33.8 °F 25.3 °F 32.0 °F 93% 30.02 in 10.0 mi North 11.5 mph - N/A   Overcast
6:35 AM 33.8 °F 25.8 °F 32.0 °F 93% 30.02 in 10.0 mi North 10.4 mph - N/A   Overcast
6:55 AM 33.8 °F 25.8 °F 32.0 °F 93% 30.03 in 10.0 mi NNW 10.4 mph - N/A   Overcast
7:15 AM 33.8 °F 25.3 °F 32.0 °F 93% 30.03 in 10.0 mi NNW 11.5 mph - N/A   Overcast
7:35 AM 33.8 °F 25.3 °F 32.0 °F 93% 30.03 in 10.0 mi North 11.5 mph - N/A   Overcast
7:55 AM 33.8 °F 25.3 °F 32.0 °F 93% 30.03 in 10.0 mi NNW 11.5 mph - N/A   Overcast
8:15 AM 33.8 °F 25.8 °F 32.0 °F 93% 30.04 in 10.0 mi NNW 10.4 mph - N/A   Overcast
8:35 AM 35.6 °F 28.0 °F 32.0 °F 87% 30.04 in 10.0 mi NNW 10.4 mph - N/A   Overcast
9:15 AM 35.6 °F 27.5 °F 32.0 °F 87% 30.05 in 10.0 mi North 11.5 mph - N/A   Overcast
9:35 AM 37.4 °F 29.8 °F 32.0 °F 81% 30.05 in 10.0 mi North 11.5 mph 17.3 mph N/A   Overcast
9:55 AM 37.4 °F 28.2 °F 32.0 °F 81% 30.05 in 10.0 mi North 16.1 mph - N/A   Overcast
10:15 AM 39.2 °F 29.3 °F 32.0 °F 75% 30.05 in 10.0 mi North 20.7 mph - N/A   Overcast
10:35 AM 39.2 °F 30.5 °F 32.0 °F 75% 30.05 in 10.0 mi North 16.1 mph - N/A   Overcast
10:55 AM 41.0 °F 32.8 °F 32.0 °F 70% 30.06 in 10.0 mi North 16.1 mph 23.0 mph N/A   Overcast
11:15 AM 41.0 °F 33.1 °F 32.0 °F 70% 30.05 in 10.0 mi North 15.0 mph - N/A   Overcast
11:35 AM 41.0 °F 33.1 °F 32.0 °F 70% 30.05 in 10.0 mi North 15.0 mph 18.4 mph N/A   Overcast
11:55 AM 42.8 °F 35.4 °F 32.0 °F 66% 30.05 in 10.0 mi North 15.0 mph - N/A   Overcast
12:15 PM 42.8 °F 34.5 °F 32.0 °F 66% 30.04 in 10.0 mi North 18.4 mph - N/A   Overcast
12:35 PM 42.8 °F 35.4 °F 32.0 °F 66% 30.04 in 10.0 mi North 15.0 mph - N/A   Overcast
12:55 PM 44.6 °F 37.4 °F 32.0 °F 61% 30.03 in 10.0 mi NNW 16.1 mph 21.9 mph N/A   Overcast
1:15 PM 44.6 °F 37.8 °F 32.0 °F 61% 30.03 in 10.0 mi North 15.0 mph - N/A   Overcast
1:35 PM 44.6 °F 37.4 °F 32.0 °F 61% 30.02 in 10.0 mi North 16.1 mph 21.9 mph N/A   Overcast
1:55 PM 44.6 °F 37.8 °F 32.0 °F 61% 30.02 in 10.0 mi North 15.0 mph 18.4 mph N/A   Overcast
2:15 PM 44.6 °F 37.4 °F 32.0 °F 61% 30.02 in 10.0 mi North 16.1 mph 21.9 mph N/A   Overcast
2:35 PM 44.6 °F 37.2 °F 32.0 °F 61% 30.02 in 10.0 mi North 17.3 mph 23.0 mph N/A   Overcast
3:15 PM 42.8 °F 36.2 °F 30.2 °F 61% 30.01 in 10.0 mi North 12.7 mph - N/A   Overcast
3:35 PM 42.8 °F 35.8 °F 32.0 °F 66% 30.01 in 10.0 mi North 13.8 mph 23.0 mph N/A   Overcast
3:55 PM 42.8 °F 35.8 °F 32.0 °F 66% 30.01 in 10.0 mi North 13.8 mph 23.0 mph N/A   Overcast
4:15 PM 42.8 °F 35.1 °F 32.0 °F 66% 30.01 in 10.0 mi North 16.1 mph 23.0 mph N/A   Overcast
4:35 PM 42.8 °F 34.8 °F 32.0 °F 66% 30.01 in 10.0 mi North 17.3 mph 21.9 mph N/A   Overcast
4:55 PM 42.8 °F 35.1 °F 30.2 °F 61% 30.01 in 10.0 mi North 16.1 mph 21.9 mph N/A   Overcast
5:15 PM 42.8 °F 35.8 °F 32.0 °F 66% 30.01 in 10.0 mi North 13.8 mph 19.6 mph N/A   Overcast
5:35 PM 42.8 °F 35.4 °F 30.2 °F 61% 30.02 in 10.0 mi North 15.0 mph 20.7 mph N/A   Overcast
5:55 PM 41.0 °F 33.9 °F 30.2 °F 65% 30.02 in 10.0 mi North 12.7 mph 18.4 mph N/A   Mostly Cloudy
6:15 PM 41.0 °F 32.8 °F 30.2 °F 65% 30.02 in 10.0 mi North 16.1 mph - N/A   Clear
6:35 PM 39.2 °F 32.0 °F 30.2 °F 70% 30.02 in 10.0 mi NNW 11.5 mph - N/A   Clear
6:55 PM 39.2 °F 32.5 °F 30.2 °F 70% 30.03 in 10.0 mi NNW 10.4 mph - N/A   Scattered Clouds
7:15 PM 37.4 °F 30.3 °F 30.2 °F 75% 30.02 in 10.0 mi NNW 10.4 mph - N/A   Scattered Clouds
7:55 PM 37.4 °F 29.8 °F 30.2 °F 75% 30.03 in 10.0 mi NNW 11.5 mph - N/A   Mostly Cloudy
8:15 PM 37.4 °F 29.8 °F 30.2 °F 75% 30.02 in 10.0 mi NNW 11.5 mph - N/A   Overcast
8:35 PM 37.4 °F 29.8 °F 30.2 °F 75% 30.02 in 10.0 mi NNW 11.5 mph - N/A   Overcast
8:55 PM 39.2 °F 31.2 °F 30.2 °F 70% 30.01 in 10.0 mi NNW 13.8 mph 20.7 mph N/A   Overcast
9:15 PM 39.2 °F 30.5 °F 30.2 °F 70% 30.01 in 10.0 mi NNW 16.1 mph 21.9 mph N/A   Overcast
9:35 PM 39.2 °F 31.6 °F 30.2 °F 70% 30.01 in 10.0 mi NNW 12.7 mph 20.7 mph N/A   Overcast
9:55 PM 39.2 °F 30.8 °F 30.2 °F 70% 30.01 in 10.0 mi NNW 15.0 mph 19.6 mph N/A   Overcast
10:15 PM 37.4 °F 28.5 °F 30.2 °F 75% 30.01 in 10.0 mi NNW 15.0 mph - N/A   Overcast
10:35 PM 39.2 °F 30.5 °F 30.2 °F 70% 30.00 in 10.0 mi NNW 16.1 mph - N/A   Overcast
10:55 PM 39.2 °F 31.2 °F 30.2 °F 70% 30.00 in 10.0 mi NNW 13.8 mph 20.7 mph N/A   Overcast
11:15 PM 37.4 °F 27.5 °F 30.2 °F 75% 29.99 in 10.0 mi NNW 18.4 mph - N/A   Scattered Clouds
11:35 PM 37.4 °F 28.5 °F 30.2 °F 75% 29.99 in 10.0 mi NNW 15.0 mph - N/A   Clear
11:55 PM 35.6 °F 26.6 °F 30.2 °F 81% 29.98 in 10.0 mi NNW 13.8 mph - N/A   Clear